SCP
0 0 0 0 0 0 0 0 0 0 0 0 0 0 0 0 0 0 0 0 0 0 0 0 0 0 0 0 0 0 0 0 0 0 0 0 0 0
0 0 0 0 0 0 0 0 0 0 0 0 0 0 0 0 0 0 0 0 0 0 0 0 0 0 0 0 0 0 0 0 0 0 0 0 0 0
0 0 0 0 0 0 0 0 0 0 0 0 0 0 0 0 0 0 0 0 0 0 0 0 0 0 0 0 0 0 0 0 0 0 0 0 0 0
0 0 0 0 0 0 0 0 0 0 0 0 0 0 0 0 0 0 0 0 0 0 0 0 0 0 0 0 0 0 0 0 0 0 0 0 0 0
0 0 0 0 0 0 0 0 0 0 0 0 0 0 0 0 0 0 0 0 0 0 0 0 0 0 0 0 0 0 0 0 0 0 0 0 0 0
0 0 0 0 0 0 0 0 0 0 0 0 0 0 0 0 0 0 0 0 0 0 0 0 0 0 0 0 0 0 0 0 0 0 0 0 0 0
0 0 0 0 0 0 0 0 0 0 0 0 0 0 0 0 0 0 0 0 0 0 0 0 0 0 0 0 0 0 0 0 0 0 0 0 0 0
0 0 0 0 0 0 0 0 0 0 0 0 0 0 0 0 0 0 0 0 0 0 0 0 0 0 0 0 0 0 0 0 0 0 0 0 0 0
0 0 0 0 0 0 0 0 0 0 0 0 0 0 0 0 0 0 0 0 0 0 0 0 0 0 0 0 0 0 0 0 0 0 0 0 0 0
0 0 0 0 0 0 0 0 0 0 0 0 0 0 0 0 0 0 0 0 0 0 0 0 0 0 0 0 0 0 0 0 0 0 0 0 0 0
0 0 0 0 0 0 0 0 0 0 0 0 0 0 0 0 0 0 0 0 0 0 0 0 0 0 0 0 0 0 0 0 0 0 0 0 0 0
0 0 0 0 0 0 0 0 0 0 0 0 0 0 0 0 0 0 0 0 0 0 0 0 0 0 0 0 0 0 0 0 0 0 0 0 0 0
0 0 0 0 0 0 0 0 0 0 0 0 0 0 0 0 0 0 0 0 0 0 0 0 0 0 0 0 0 0 0 0 0 0 0 0 0 0
0 0 0 0 0 0 0 0 0 0 0 0 0 0 0 0 0 0 0 0 0 0 0 0 0 0 0 0 0 0 0 0 0 0 0 0 0 0
0 0 0 0 0 0 0 0 0 0 0 0 0 0 0 0 0 0 0 0 0 0 0 0 0 0 0 0 0 0 0 0 0 0 0 0 0 0
0 0 0 0 0 0 0 0 0 0 0 0 0 0 0 0 0 0 0 0 0 0 0 0 0 0 0 0 0 0 0 0 0 0 0 0 0 0
0 0 0 0 0 0 0 0 0 0 0 0 0 0 0 0 0 0 0 0 0 0 0 0 0 0 0 0 0 0 0 0 0 0 0 0 0 0
0 0 0 0 0 0 0 0 0 0 0 0 0 0 0 0 0 0 0 0 0 0 0 0 0 0 0 0 0 0 0 0 0 0 0 0 0 0
0 0 0 0 0 0 0 0 0 0 0 0 0 0 0 0 0 0 0 0 0 0 0 0 0 0 0 0 0 0 0 0 0 0 0 0 0 0
0 0 0 0 0 0 0 0 0 0 0 0 0 0 0 0 0 0 0 0 0 0 0 0 0 0 0 0 0 0 0 0 0 0 0 0 0 0
0 0 0 0 0 0 0 0 0 0 0 0 0 0 0 0 0 0 0 0 0 0 0 0 0 0 0 0 0 0 0 0 0 0 0 0 0 0
0 0 0 0 0 0 0 0 0 0 0 0 0 0 0 0 0 0 0 0 0 0 0 0 0 0 0 0 0 0 0 0 0 0 0 0 0 0
0 0 0 0 0 0 0 0 0 0 0 0 0 0 0 0 0 0 0 0 0 0 0 0 0 0 0 0 0 0 0 0 0 0 0 0 0 0
Wind_Speed
5 5 4 3 2 2 2 3 3 3 3 2 2 2 1 2 3 3 3 4 5 6 7 7 7 8 8 8 8 9 9 10 10 11 11 12 13 13
4 5 4 3 3 2 3 2 3 3 3 2 2 2 2 2 3 4 4 5 5 6 7 7 7 8 8 8 9 9 10 10 11 12 11 11 12 13
5 5 5 4 3 3 2 2 3 3 3 2 1 2 3 3 3 4 4 4 4 6 7 7 8 8 8 9 9 9 10 10 11 12 12 12 13 13
6 6 5 4 4 3 3 3 2 2 3 3 2 2 3 4 4 4 4 4 4 5 7 8 9 9 9 9 10 10 10 11 12 12 13 13 13 14
6 6 5 5 5 3 3 3 2 2 2 2 2 2 2 3 3 4 4 4 4 5 7 7 8 9 9 10 10 10 10 11 12 12 13 13 13 14
5 5 5 5 5 4 3 3 3 2 2 2 2 2 2 3 3 3 4 4 4 5 5 6 7 9 10 10 10 10 10 11 12 13 13 13 13 14
5 5 4 4 4 4 3 3 3 3 3 3 3 3 3 3 3 3 4 4 5 4 4 5 5 5 6 7 8 9 11 12 13 13 13 14 14 14
5 5 4 5 5 5 5 5 5 5 4 4 4 4 5 4 3 3 4 5 5 3 5 6 5 6 6 6 8 11 12 13 13 13 14 14 14 14
5 5 4 4 5 4 4 4 5 6 6 5 6 6 5 5 4 5 5 6 6 4 5 7 5 7 6 6 10 12 12 13 13 13 14 15 15 15
5 5 5 5 5 4 4 4 4 4 5 5 5 6 5 5 5 6 6 6 6 5 5 7 6 6 6 6 9 11 12 12 13 14 15 16 16 15
4 4 5 5 5 5 4 4 3 3 3 4 5 6 6 6 6 4 4 5 6 5 4 5 5 6 7 7 6 9 11 12 13 15 16 15 15 14
3 3 5 5 5 6 5 4 4 4 3 3 3 4 4 5 6 6 5 5 5 5 3 4 5 5 6 4 5 6 7 10 12 14 14 13 13 9
3 3 3 5 5 5 5 5 5 3 3 3 3 3 3 3 3 4 4 5 5 5 3 3 4 5 6 6 6 6 6 7 7 9 11 12 12 10
3 3 3 4 4 5 4 4 3 3 2 3 3 3 3 3 3 3 4 5 5 6 6 5 4 5 6 7 7 6 6 7 7 7 7 9 10 11
2 3 3 3 3 3 3 4 3 3 3 3 3 3 3 3 3 3 4 4 5 5 5 6 5 5 6 7 7 7 7 7 6 6 6 7 6 6
1 2 2 2 2 2 2 2 2 2 3 3 3 3 2 2 3 3 3 3 4 4 4 5 6 6 6 7 7 8 7 6 6 6 7 7 6 6
1 1 1 1 1 1 1 2 1 2 2 2 2 3 3 3 3 3 3 3 4 5 5 4 5 5 7 7 8 8 8 7 6 6 7 7 7 6
2 2 1 1 2 2 2 2 2 2 2 2 3 3 3 3 3 3 3 4 5 5 5 4 4 5 5 6 8 8 7 6 6 7 7 7 8 7
1 1 2 2 2 2 2 2 3 3 2 3 3 3 3 3 4 4 4 4 5 5 5 4 4 5 6 7 4 5 6 7 7 7 6 7 8 8
1 2 2 2 2 2 2 3 3 2 3 3 3 4 4 4 4 5 4 5 5 5 5 4 4 5 6 7 6 6 7 7 6 7 7 7 7 9
1 2 2 2 2 2 3 3 3 3 4 4 4 4 4 4 5 5 5 6 6 5 6 6 5 6 5 5 6 6 6 7 8 7 7 7 7 6
2 2 2 2 3 3 3 3 3 4 4 4 4 4 4 4 5 6 5 5 5 6 6 5 4 4 4 6 7 8 7 6 7 9 11 10 6 6
2 2 3 3 3 3 3 4 5 4 4 4 5 5 5 5 5 5 6 6 6 6 6 5 5 4 5 6 7 7 8 8 6 6 6 7 10 13
Wind_Direction
175 174 172 168 170 179 181 189 195 213 228 217 214 225 270 289 303 294 299 319 311 307 307 312 312 309 307 306 306 306 306 306 304 300 291 289 288 288
173 178 178 174 170 179 191 207 225 225 229 209 232 250 260 276 294 293 298 306 297 299 299 301 301 301 304 304 304 304 303 303 300 299 294 294 294 292
176 185 187 181 179 185 191 202 214 219 228 241 251 251 253 260 272 281 287 291 293 293 294 296 296 298 300 301 302 302 302 301 300 300 296 294 294 293
186 188 191 185 192 193 197 206 215 227 228 231 237 246 258 260 265 274 283 286 287 288 288 288 289 291 293 296 297 298 300 301 300 298 295 294 293 294
192 193 194 190 198 200 206 213 216 220 234 226 240 251 263 262 270 276 280 284 289 286 282 280 281 286 290 291 290 292 295 296 296 295 293 291 291 292
196 199 199 199 204 203 208 213 210 209 211 218 232 248 258 265 267 273 282 287 288 291 284 284 284 284 284 286 286 287 290 292 292 292 292 290 289 291
196 203 205 203 209 210 209 209 206 210 213 221 233 246 249 256 260 274 281 292 288 282 287 286 286 286 287 282 280 283 289 291 290 291 293 291 290 290
197 201 199 196 197 207 217 224 223 219 219 228 238 243 251 258 265 269 277 284 284 277 285 288 286 283 285 285 286 290 291 290 290 291 294 293 290 289
200 200 202 200 202 206 213 227 236 241 237 239 242 249 256 256 259 267 267 273 281 289 288 283 283 283 287 285 287 288 290 291 292 293 293 293 290 287
204 204 207 207 205 205 213 225 239 246 244 245 250 258 263 261 259 267 273 280 284 278 276 280 285 286 291 285 281 283 288 291 292 293 293 291 288 284
207 207 209 211 200 197 206 219 238 256 260 257 270 273 274 267 261 261 262 269 279 280 274 275 287 296 291 282 279 282 287 288 291 293 292 289 287 285
204 208 212 213 204 201 211 216 230 248 255 262 263 262 262 255 250 251 253 262 276 277 260 268 284 299 291 277 281 288 290 289 292 295 296 292 290 285
202 211 208 201 208 219 230 231 230 248 252 253 260 264 266 264 260 262 261 260 265 269 266 269 277 280 276 287 289 288 292 297 298 296 295 296 291 286
211 216 209 199 215 232 238 227 225 238 240 245 252 257 260 264 271 277 277 275 272 273 272 266 263 268 277 283 288 293 294 294 296 296 297 298 293 288
222 218 214 206 220 231 214 219 228 230 232 242 248 258 268 276 281 284 281 279 279 276 270 268 265 268 268 274 282 288 294 293 287 290 299 299 296 293
197 170 174 196 218 224 227 230 235 235 242 249 260 270 276 274 270 273 277 281 285 284 273 271 270 269 270 274 277 281 282 284 288 293 298 296 293 287
190 197 218 221 225 235 249 257 252 243 249 257 261 264 265 267 271 274 272 273 273 281 288 284 277 272 268 270 272 272 278 283 287 295 297 293 289 287
183 209 224 237 242 244 248 258 260 255 254 254 256 259 261 263 268 269 269 268 271 275 280 286 290 287 277 261 246 266 275 284 291 292 290 290 291 291
199 221 237 247 255 255 254 256 262 266 262 254 254 256 258 260 262 263 263 266 271 276 278 280 278 278 283 288 271 233 271 286 290 288 285 285 289 293
231 237 247 255 259 262 263 264 265 265 259 255 254 253 252 255 259 262 261 264 272 277 278 273 269 269 275 287 291 284 263 272 282 286 289 289 286 287
269 267 266 266 267 269 270 266 263 262 262 262 260 258 254 255 258 261 263 265 269 271 272 273 273 277 281 280 278 280 281 270 271 276 285 289 292 290
279 277 275 271 270 269 268 265 262 261 261 262 264 263 259 257 259 260 261 262 263 267 273 278 279 274 268 271 279 287 294 298 289 281 269 261 272 281
286 283 278 274 269 267 266 263 262 261 261 261 262 262 261 260 260 260 261 262 264 267 271 276 276 271 269 272 278 285 292 297 300 303 295 279 270 272